DW9813 Weather Reports


Display with metric or nautical units.
time (UTC)temp
F
wind
direction
speed
MPH
gust
MPH
rain 1hr
in
rain 24hr
in
rain mn
in
humidity
%
barometer
mb
20260506051038 50 351 6.0 13.0 0.00 0.00 0.00 84 1013.0
20260506050538 50 330 7.0 12.0 0.00 0.00 0.00 84 1012.9
20260506045037 50 352 8.0 15.0 0.00 0.00 0.00 84 1012.7
20260506044551 50 344 8.0 15.0 0.00 0.00 0.00 84 1012.5
20260506044038 50 346 4.0 13.0 0.00 0.00 0.00 84 1012.6
20260506043537 50 322 7.0 13.0 0.00 0.00 0.00 84 1012.6
20260506043052 51 5 6.0 13.0 0.00 0.00 0.00 83 1012.4
20260506042539 51 350 5.0 14.0 0.00 0.00 0.00 82 1012.5
20260506042038 51 360 8.0 14.0 0.00 0.00 0.00 82 1012.5
20260506041551 51 338 7.0 14.0 0.00 0.00 0.00 81 1012.5
20260506041038 51 21 4.0 14.0 0.00 0.00 0.00 81 1012.5
20260506040538 51 19 6.0 17.0 0.00 0.00 0.00 81 1012.4
20260506040051 51 5 7.0 17.0 0.00 0.00 0.00 81 1012.3
20260506035538 51 346 8.0 18.0 0.00 0.02 0.00 81 1012.2
20260506035038 51 335 7.0 18.0 0.00 0.02 0.00 81 1012.4
20260506034553 51 334 7.0 15.0 0.00 0.02 0.00 81 1012.3
20260506034038 51 330 7.0 14.0 0.00 0.02 0.00 81 1012.4
20260506033538 51 360 6.0 11.0 0.00 0.02 0.00 81 1012.3
20260506033051 51 314 5.0 18.0 0.00 0.02 0.00 80 1012.5
20260506032538 51 5 9.0 18.0 0.00 0.02 0.00 80 1012.3
20260506032038 51 323 6.0 12.0 0.00 0.02 0.00 80 1012.2
20260506031551 51 306 5.0 14.0 0.00 0.02 0.00 80 1012.2
20260506031040 51 340 7.0 14.0 0.00 0.02 0.00 80 1012.2
20260506030537 51 342 8.0 16.0 0.00 0.02 0.00 80 1012.3
20260506030059 51 340 5.0 16.0 0.00 0.02 0.00 80 1012.0
20260506025537 51 317 8.0 14.0 0.00 0.02 0.00 80 1011.9
20260506025041 51 327 7.0 14.0 0.00 0.02 0.00 80 1011.8
20260506024603 51 346 8.0 14.0 0.00 0.02 0.00 80 1011.6
20260506024038 51 334 5.0 10.0 0.00 0.02 0.00 81 1011.5
20260506023538 51 360 5.0 16.0 0.00 0.02 0.00 80 1011.3
20260506023102 51 82 5.0 16.0 0.00 0.02 0.00 80 1011.1
20260506022538 51 327 4.0 10.0 0.00 0.02 0.00 81 1011.1
20260506022038 51 352 4.0 14.0 0.00 0.02 0.00 80 1011.0
20260506021555 51 314 5.0 14.0 0.00 0.02 0.00 81 1010.7
20260506021038 51 317 6.0 14.0 0.00 0.02 0.00 80 1010.4
20260506020537 51 328 5.0 10.0 0.00 0.02 0.00 80 1010.3
20260506020045 52 13 5.0 14.0 0.00 0.02 0.00 80 1010.1
20260506015538 52 27 5.0 14.0 0.00 0.02 0.00 80 1010.1
20260506015038 52 327 5.0 11.0 0.00 0.02 0.00 80 1010.2
20260506014552 52 338 6.0 12.0 0.00 0.02 0.00 80 1010.1
20260506014035 52 327 6.0 12.0 0.00 0.02 0.00 80 1010.0
20260506013539 52 11 4.0 11.0 0.00 0.02 0.00 81 1009.8
20260506013100 52 342 5.0 15.0 0.00 0.02 0.00 81 1009.8
20260506012537 52 352 6.0 15.0 0.00 0.02 0.00 80 1009.8
20260506012038 52 352 10.0 15.0 0.00 0.02 0.00 80 1009.9
20260506011615 52 23 7.0 16.0 0.00 0.02 0.00 80 1009.6
20260506011038 52 294 8.0 17.0 0.00 0.02 0.00 80 1009.7
20260506010538 52 331 8.0 17.0 0.00 0.02 0.00 81 1009.7
20260506010047 52 335 7.0 15.0 0.00 0.02 0.00 81 1009.5
20260506005538 52 327 8.0 16.0 0.00 0.02 0.00 81 1009.6
20260506005040 52 19 7.0 16.0 0.00 0.02 0.00 81 1009.4
20260506004546 52 326 8.0 16.0 0.00 0.02 0.00 81 1009.7
20260506004038 52 342 9.0 16.0 0.00 0.02 0.00 81 1009.5
20260506003538 53 344 8.0 19.0 0.00 0.02 0.00 81 1009.6
20260506003051 53 342 9.0 19.0 0.00 0.02 0.00 81 1009.3
20260506002537 53 326 6.0 17.0 0.00 0.02 0.00 81 1008.8
20260506002037 53 32 6.0 18.0 0.00 0.02 0.00 81 1009.0
20260506001557 53 318 7.0 18.0 0.00 0.02 0.00 81 1008.9
20260506001038 53 329 8.0 16.0 0.00 0.02 0.00 81 1008.9
20260506000538 53 330 7.0 18.0 0.00 0.02 0.00 82 1009.4
20260506000059 53 317 8.0 20.0 0.00 0.02 0.00 82 1009.4
20260505235538 53 323 7.0 20.0 0.00 0.02 0.00 82 1009.3
20260505235039 53 10 10.0 20.0 0.00 0.02 0.00 82 1009.2
20260505234549 53 323 7.0 20.0 0.00 0.02 0.00 82 1009.2
20260505234040 54 334 8.0 20.0 0.00 0.02 0.00 82 1009.2
20260505233536 54 5 10.0 19.0 0.00 0.02 0.00 82 1009.1
20260505233050 54 5 10.0 16.0 0.00 0.02 0.00 82 1008.8
20260505232537 54 335 5.0 16.0 0.00 0.02 0.00 83 1008.8
20260505232039 54 21 7.0 17.0 0.00 0.02 0.00 82 1008.8
20260505231549 54 325 8.0 20.0 0.00 0.02 0.00 82 1008.5
20260505231037 54 338 7.0 20.0 0.00 0.02 0.00 82 1008.2
20260505230538 54 14 9.0 20.0 0.00 0.02 0.00 82 1008.1
20260505230044 54 313 8.0 17.0 0.00 0.02 0.00 82 1008.2
20260505225536 55 317 9.0 20.0 0.00 0.02 0.00 81 1007.6
20260505225036 55 331 10.0 20.0 0.00 0.02 0.00 81 1007.7
20260505224541 55 304 11.0 19.0 0.00 0.02 0.00 81 1007.8
20260505224039 55 55 9.0 19.0 0.00 0.02 0.00 81 1007.6
20260505223545 56 320 10.0 20.0 0.00 0.02 0.00 81 1007.4
20260505223044 56 352 12.0 18.0 0.00 0.02 0.00 81 1007.4
20260505222535 56 310 10.0 18.0 0.00 0.02 0.00 82 1007.3
20260505222035 56 352 6.0 18.0 0.00 0.02 0.00 82 1007.3
20260505221600 56 325 7.0 18.0 0.00 0.02 0.00 81 1007.6
20260505221038 56 344 10.0 17.0 0.00 0.02 0.00 81 1007.6
20260505220539 57 335 9.0 19.0 0.00 0.02 0.00 81 1007.4
20260505220101 57 324 9.0 21.0 0.00 0.02 0.00 81 1006.8
20260505215537 57 328 12.0 21.0 0.00 0.02 0.00 80 1006.7
20260505215038 57 325 9.0 18.0 0.00 0.02 0.00 81 1006.9
20260505214552 57 310 10.0 18.0 0.00 0.02 0.00 81 1007.3
20260505214038 57 331 8.0 16.0 0.00 0.02 0.00 81 1007.3
20260505213535 58 325 10.0 18.0 0.00 0.02 0.00 81 1007.4
20260505213045 58 5 9.0 18.0 0.00 0.02 0.00 81 1007.5
20260505212538 58 338 8.0 16.0 0.00 0.02 0.00 81 1007.2
20260505212038 58 309 10.0 18.0 0.00 0.02 0.00 81 1007.3
20260505211548 58 44 9.0 18.0 0.00 0.02 0.00 82 1006.6
20260505211037 58 317 10.0 18.0 0.00 0.02 0.00 81 1006.8
20260505210537 58 360 10.0 18.0 0.00 0.02 0.00 81 1006.5
20260505210053 58 344 11.0 18.0 0.00 0.02 0.00 82 1006.2
20260505205537 58 352 8.0 19.0 0.00 0.02 0.00 82 1006.4
20260505205039 59 344 11.0 19.0 0.00 0.02 0.00 81 1006.8
20260505204551 59 340 12.0 19.0 0.00 0.02 0.00 81 1006.9
20260505204036 59 326 10.0 17.0 0.00 0.02 0.00 81 1006.9
20260505203537 59 344 8.0 20.0 0.00 0.02 0.00 82 1006.8
20260505203049 59 10 8.0 20.0 0.00 0.02 0.00 82 1007.0
20260505202536 59 318 11.0 20.0 0.00 0.02 0.00 81 1007.0
20260505202036 60 319 9.0 19.0 0.00 0.02 0.00 81 1007.1
20260505201549 60 351 10.0 18.0 0.00 0.02 0.00 80 1006.9
20260505201038 61 352 10.0 22.0 0.00 0.02 0.00 81 1006.6
20260505200536 61 10 9.0 22.0 0.00 0.02 0.00 80 1006.3
20260505200045 61 315 10.0 22.0 0.00 0.02 0.00 80 1006.5
20260505195537 61 352 11.0 19.0 0.00 0.02 0.00 80 1006.4
20260505195036 62 9 10.0 19.0 0.00 0.02 0.00 80 1006.0
20260505194555 62 335 8.0 19.0 0.00 0.02 0.00 80 1006.0
20260505194036 62 342 11.0 19.0 0.00 0.02 0.00 80 1006.0
20260505193538 62 336 9.0 19.0 0.00 0.02 0.00 80 1006.1
20260505193051 62 337 8.0 17.0 0.00 0.02 0.00 80 1006.3
20260505192537 62 347 8.0 14.0 0.00 0.02 0.00 80 1006.2
20260505192037 62 321 9.0 17.0 0.00 0.02 0.00 81 1006.1
20260505191550 62 333 9.0 18.0 0.00 0.02 0.00 81 1006.0
20260505191038 61 360 7.0 18.0 0.00 0.02 0.00 82 1006.0
20260505190538 61 13 9.0 20.0 0.00 0.02 0.00 81 1006.1
20260505190049 62 340 12.0 20.0 0.00 0.02 0.00 81 1006.0
20260505185537 62 336 7.0 15.0 0.00 0.02 0.00 81 1005.9
20260505185041 62 290 6.0 23.0 0.00 0.02 0.00 81 1006.3
20260505184552 62 346 12.0 23.0 0.00 0.02 0.00 80 1006.2
20260505184036 63 326 8.0 16.0 0.00 0.02 0.00 81 1006.0
20260505183540 63 309 9.0 14.0 0.00 0.02 0.00 80 1006.1
20260505183048 64 323 7.0 19.0 0.00 0.02 0.00 80 1005.6
20260505182537 64 5 8.0 19.0 0.00 0.02 0.00 80 1005.3
20260505182037 65 299 8.0 17.0 0.00 0.02 0.00 78 1005.0
20260505181547 67 328 4.0 17.0 0.00 0.02 0.00 76 1004.8
20260505181037 68 301 2.0 17.0 0.00 0.02 0.00 73 1005.0
20260505180535 71 288 11.0 17.0 0.00 0.02 0.00 68 1005.1
20260505180050 75 290 2.0 11.0 0.00 0.02 0.00 77 1005.0
20260505175536 75 150 6.0 11.0 0.00 0.02 0.00 76 1004.7
20260505175035 74 165 6.0 11.0 0.00 0.02 0.00 77 1004.5
20260505174553 74 144 7.0 11.0 0.00 0.02 0.00 77 1004.3
20260505174035 74 137 7.0 12.0 0.00 0.02 0.00 77 1004.5
20260505173535 74 143 7.0 12.0 0.00 0.02 0.00 78 1004.6
20260505173044 73 150 7.0 12.0 0.00 0.02 0.00 78 1004.7
20260505172535 73 111 7.0 12.0 0.00 0.02 0.00 78 1004.7
20260505172035 73 113 6.0 11.0 0.00 0.02 0.00 77 1004.7
20260505171546 73 127 5.0 11.0 0.00 0.02 0.00 78 1004.5
20260505171036 73 136 6.0 11.0 0.00 0.02 0.00 78 1004.5
20260505170535 73 96 5.0 9.0 0.00 0.02 0.00 78 1004.6
20260505170040 73 101 5.0 10.0 0.00 0.02 0.00 78 1004.6
20260505165538 73 153 5.0 10.0 0.00 0.02 0.00 78 1004.7
20260505165037 72 104 3.0 11.0 0.00 0.02 0.00 79 1004.7
20260505164555 72 135 6.0 13.0 0.00 0.02 0.00 78 1004.6
20260505164037 72 146 7.0 13.0 0.00 0.02 0.00 78 1004.6
20260505163536 72 121 5.0 12.0 0.00 0.02 0.00 79 1004.6
20260505163049 71 117 6.0 11.0 0.00 0.02 0.00 79 1004.5
20260505162538 71 104 6.0 12.0 0.00 0.02 0.00 79 1004.6
20260505162037 71 117 5.0 12.0 0.00 0.02 0.00 79 1004.8
20260505161557 71 158 6.0 12.0 0.00 0.02 0.00 79 1004.7
20260505161036 71 119 6.0 13.0 0.00 0.02 0.00 79 1004.7
20260505160537 71 134 6.0 13.0 0.00 0.02 0.00 78 1004.6
20260505153107 71 111 6.0 17.0 0.00 0.02 0.00 78 1004.2
20260505152541 71 113 11.0 17.0 0.00 0.02 0.00 77 1004.1
20260505152037 71 128 7.0 14.0 0.00 0.02 0.00 77 1004.1
20260505151549 70 126 9.0 14.0 0.00 0.02 0.00 78 1004.0
20260505151039 70 123 5.0 14.0 0.00 0.02 0.00 79 1004.0
20260505150537 70 144 8.0 15.0 0.00 0.02 0.00 78 1004.0
20260505140542 68 124 4.0 9.0 0.00 0.02 0.00 79 1004.5
20260505125039 67 67 4.0 9.0 0.00 0.02 0.00 78 1005.0
20260505124547 67 82 2.0 8.0 0.00 0.02 0.00 78 1005.0
20260505124040 67 69 4.0 11.0 0.00 0.02 0.00 77 1004.8
20260505123542 67 78 4.0 11.0 0.00 0.02 0.00 77 1004.7
20260505123057 67 95 4.0 11.0 0.00 0.02 0.00 77 1004.7
20260505122542 67 77 3.0 8.0 0.00 0.02 0.00 77 1004.6
20260505122040 67 84 1.0 8.0 0.00 0.02 0.00 78 1004.6
20260505121546 67 78 2.0 8.0 0.00 0.02 0.00 77 1004.4
20260505121040 67 74 4.0 8.0 0.00 0.02 0.00 77 1004.2
20260505120540 67 360 2.0 6.0 0.00 0.02 0.00 77 1004.3
20260505120059 67 338 1.0 6.0 0.00 0.02 0.00 77 1004.3
20260505115539 67 95 2.0 8.0 0.00 0.02 0.00 77 1004.0
20260505115043 67 12 2.0 8.0 0.00 0.02 0.00 78 1003.8
20260505114544 67 63 1.0 8.0 0.00 0.02 0.00 78 1003.8
20260505114041 67 352 2.0 8.0 0.00 0.02 0.00 77 1003.6
20260505113536 67 62 4.0 11.0 0.00 0.02 0.00 77 1003.7
20260505113058 67 65 4.0 12.0 0.00 0.02 0.00 76 1003.6
20260505112606 68 94 7.0 12.0 0.00 0.02 0.00 76 1003.4
20260505112037 68 83 3.0 12.0 0.00 0.02 0.00 76 1003.6
20260505111552 68 70 3.0 12.0 0.00 0.02 0.00 76 1003.6
20260505111041 68 71 6.0 12.0 0.00 0.02 0.00 76 1003.5
20260505110540 68 80 6.0 12.0 0.00 0.02 0.00 76 1003.5
20260505102039 68 82 4.0 8.0 0.00 0.02 0.00 76 1003.0
20260505101547 68 95 2.0 8.0 0.00 0.02 0.00 76 1003.0
20260505101041 68 106 3.0 8.0 0.00 0.02 0.00 76 1002.9
20260505100541 68 114 3.0 9.0 0.00 0.02 0.00 76 1002.9
20260505100051 68 70 2.0 9.0 0.00 0.02 0.00 76 1002.9
20260505095537 68 98 4.0 9.0 0.00 0.02 0.00 76 1002.9
20260505095036 68 73 4.0 9.0 0.00 0.02 0.00 76 1002.9
20260505094550 68 95 4.0 11.0 0.00 0.02 0.00 76 1002.9
20260505094040 68 89 4.0 11.0 0.00 0.02 0.00 77 1003.1
20260505093540 67 82 4.0 9.0 0.00 0.02 0.00 77 1003.1
20260505093059 67 61 2.0 9.0 0.00 0.02 0.00 78 1003.0
20260505092539 67 119 1.0 5.0 0.00 0.02 0.00 79 1002.9
20260505092040 67 113 2.0 4.0 0.00 0.02 0.00 79 1003.2
20260505091553 67 95 0.0 2.0 0.00 0.02 0.00 79 1003.3
20260505091037 67 0 0.0 6.0 0.00 0.02 0.00 79 1003.4
20260505090540 67 0 2.0 8.0 0.00 0.02 0.00 78 1003.4
20260505090050 67 75 2.0 8.0 0.00 0.02 0.00 78 1003.3
20260505085538 67 86 3.0 5.0 0.00 0.02 0.00 79 1003.3
20260505085037 67 76 0.0 3.0 0.00 0.02 0.00 80 1003.5
20260505084554 67 0 0.0 0.0 0.00 0.02 0.00 80 1003.6
20260505084040 67 0 0.0 0.0 0.00 0.02 0.00 80 1003.5
20260505083538 67 0 0.0 0.0 0.00 0.02 0.00 80 1003.5
20260505083055 67 0 0.0 0.0 0.00 0.02 0.00 80 1003.5
20260505082538 67 0 0.0 0.0 0.00 0.02 0.00 80 1003.6
20260505082038 66 0 0.0 0.0 0.00 0.02 0.00 80 1003.7
20260505081552 67 0 0.0 0.0 0.00 0.02 0.00 80 1003.6
20260505081039 67 0 0.0 2.0 0.00 0.02 0.00 80 1003.5
20260505080538 67 0 0.0 3.0 0.00 0.02 0.00 80 1003.5
20260505080049 67 100 1.0 3.0 0.00 0.02 0.00 79 1003.5
20260505075540 67 100 1.0 3.0 0.00 0.02 0.00 78 1003.4
20260505075038 67 157 1.0 3.0 0.00 0.02 0.00 78 1003.3
20260505074549 67 0 0.0 3.0 0.00 0.02 0.00 78 1003.6
20260505074038 67 0 2.0 3.0 0.00 0.02 0.00 78 1003.7
20260505073542 67 344 1.0 4.0 0.00 0.02 0.00 77 1003.6
20260505073100 68 24 1.0 9.0 0.00 0.02 0.00 76 1003.1
20260505072539 68 112 3.0 10.0 0.00 0.02 0.00 76 1002.9
20260505072038 68 119 5.0 10.0 0.00 0.02 0.00 76 1002.9
20260505071551 68 129 5.0 10.0 0.00 0.02 0.00 76 1002.8
20260505071039 68 156 5.0 10.0 0.00 0.02 0.00 75 1002.8
20260505070539 68 138 5.0 9.0 0.00 0.02 0.00 75 1002.8
20260505070051 68 154 5.0 10.0 0.00 0.02 0.00 75 1002.9
20260505065538 68 153 6.0 10.0 0.00 0.02 0.00 75 1003.1
20260505065038 68 108 5.0 10.0 0.00 0.02 0.00 75 1003.0
20260505064558 68 138 5.0 11.0 0.00 0.02 0.00 75 1003.2
20260505064038 68 134 6.0 11.0 0.00 0.02 0.00 74 1003.2
20260505063541 68 136 5.0 12.0 0.00 0.02 0.00 74 1003.4
20260505063101 68 138 5.0 12.0 0.00 0.02 0.00 74 1003.5
20260505062538 68 115 4.0 10.0 0.00 0.02 0.00 74 1003.5
20260505062038 68 141 5.0 10.0 0.00 0.02 0.00 74 1003.5
20260505061552 68 136 5.0 11.0 0.00 0.02 0.00 74 1003.5
20260505061038 68 163 6.0 12.0 0.00 0.02 0.00 74 1003.7
20260505060538 68 121 7.0 12.0 0.00 0.02 0.00 74 1003.6
20260505060049 68 152 6.0 12.0 0.00 0.02 0.00 74 1003.7
20260505055538 68 142 6.0 13.0 0.00 0.02 0.00 74 1003.9
20260505055042 68 132 8.0 15.0 0.00 0.02 0.00 73 1003.9